NOAA 16 DEB, 42407

Orbit data source: Space-Track

NOAA 16 DEB, 42407 is space debris in SSO originally from a launch on Thu, 21 Sep 2000 UTC launched from the Air Force Western Test Range (AFWTR). Debris objects in space refer to the collection of defunct objects orbiting the Earth. Examples of debris include non-operational satellites, rocket bodies, and fragments generated from explosions, collisions, or faulty payload assembly.

Loading next visibility...
Identifier
42407, 2000-055TB
Orbit
SSO
Country
Flag of USUS
Related business
Manufacturer
Unknown
Mission
Spacecraft
Bus & Motor
Unknown
Mass
Unknown
Launch date (UTC)
2000-09-21 (26 years ago)
Launch vehicle
Unknown
Launch site
Air Force Western Test Range (AFWTR)
Object type
Payload
Rocket body
Debris
Shape & HBR
Unknown shape, 0.1 m
Radar Cross Section
Medium (>0.1 m² and <1 m²)

Expand to show TLE details & history
Last TLE update: 18 hours ago

TLE from 18 hours ago
0 NOAA 16 DEB
1 42407U 00055TB  26236.05256822  .00106917  00000-0  58791-2 0  9992
2 42407  98.9528  96.9916 0007416  98.8031 261.4036 15.13560515540864
Epoch: 2026-08-24T01:15Z
TLE epoch observation values (Epoch: 2026-08-24T01:15:41.894Z)
Latitude
Longitude
105.72724°
Altitude
529.154 km
Speed
7.598 km/s
True Right ascension
06h 27m 57s
True Declination
0° 00' 00"
Sunlit
Object was in daylight at epoch
Visualization orbit readout
Latitude
Unknown
Longitude
Unknown
Altitude
Unknown
Speed
Unknown
Apparent Right ascension
Unknown
Apparent Declination
Unknown
Sunlit
N/A
Visualization observer readout
Local Sidereal Time
10:20:52
Azimuth
Unknown
Elevation
Unknown
Doppler factor
Unknown
Orbital elements
Apogee altitude
527.517 km
Perigee altitude
517.282 km
Semi-major axis
6,900.536 km
Eccentricity
0.00074
Inclination
98.9528°
RAAN
96.9916°
Arg. of periapsis
98.8031°
True anomaly
261.31959°
Mean anomaly
261.4036°
Eccentric anomaly
261.36159°
Mean motion
3.78633 °/min
Orbital period
95.08 mins
BSTAR
0.0058791
Loading maneuver chart data...
Computing Atmospheric mass density...
Loading historical data...
Loading historical data...
Loading historical data...
Loading historical data...
Loading historical data...
Loading historical data...
Loading historical data...

Documentation

Showing up to 5 results
|